Home > Time Zones > World Clock > Weather > Japan > Osaka > Past weeks

Flag for Japan Weather past 2 weeks in Osaka, Japan

Now
64 °F

Passing clouds.


Feels Like: 64 °F
Forecast: 58 / 83 °F
Wind: 2 mph from North

Location: Osaka International Airport

Current Time: May 26, 2015 at 7:23:25 AM

Latest Report: May 26, 2015 at 6:00 AM


Visibility: N/A

Pressure: 29.83 "Hg

Humidity: 83%

Dew point: 59 °F

Location of OsakaLocation

Historic Weather in Osaka — Graph

°F

Osaka temperature yesterday

Maximum temperature yesterday: 82 °F (at 11:00 AM)
Minimum temperature yesterday: 61 °F (at 5:00 AM)
Average temperature yesterday: 76 °F

Past Weeks' High & Low Weather Summary

 TemperatureHumidityPressure
High82 °F (May 15, 12:00 PM)100% (May 12, 6:00 PM)30.18 "Hg (May 12, 6:00 PM)
Low54 °F (May 11, 6:00 AM)19% (May 11, 1:00 PM)29.53 "Hg (May 12, 5:00 PM)
Average71 °F58%29.80 "Hg
* Reported May 11 6:00 AM — May 26 6:00 AM, Osaka, Weather by CustomWeather, © 2015

Note: Actual official high and low records may vary slightly from our data, if they occured in-between our weather recording intervals... More about our weather records

Advertising

Osaka weather history for previous 24 hours

 ConditionsComfort  
Time TempWeatherWind HumidityBarometerVisibility
6:00 AM
Tue, May 26
64 °FPassing clouds.2 mph83%29.83 "HgN/A
5:00 AM64 °FSunny.3 mph83%29.80 "Hg10 mi
8:00 PM
Mon, May 25
73 °FPassing clouds.5 mph57%29.77 "HgN/A
7:00 PM75 °FPartly sunny.5 mph50%29.74 "HgN/A
6:00 PM81 °FPartly sunny.8 mph39%29.71 "HgN/A
5:00 PM82 °FPartly sunny.8 mph40%29.71 "HgN/A
4:00 PM82 °FPartly sunny.6 mph37%29.71 "HgN/A
3:00 PM82 °FBroken clouds.5 mph37%29.71 "HgN/A
2:00 PM82 °FBroken clouds.5 mph40%29.71 "HgN/A
1:00 PM81 °FBroken clouds.6 mph37%29.74 "HgN/A
12:00 PM82 °FBroken clouds.6 mph32%29.74 "HgN/A
11:00 AM82 °FBroken clouds.6 mph37%29.77 "HgN/A
10:00 AM79 °FPartly sunny.2 mph42%29.77 "HgN/A
9:00 AM75 °FSunny.3 mph44%29.77 "Hg10 mi
8:00 AM72 °FSunny.2 mph47%29.80 "Hg10 mi
7:00 AM68 °FSunny.3 mph60%29.80 "Hg10 mi
Weather by CustomWeather, © 2015

See weather overviewHow to use our weather pages